Main page
METAR-TAF:

METAR-TAF

Airports :

Oil platform

Goeree Le, Netherlands

latitude: 51-55-33N, longitude: 3-40-12E, elevation: 19 m

Current weather observation

The report was made 20 minutes ago, at 09:25 UTC
Wind 17 kt from the North
Temperature 11°C
Humidity 94%
Pressure 1008 hPa
Visibility: 5000 m
mist

METAR: EHSC 190925Z AUTO 01017KT 5000 BR ///////// 11/10 Q1008 W12/H10

Time: 11:45 (09:45 UTC)


TAF: missing

Weather observations and forecasts of more than 4000 airports (METAR and TAF reports).

The available stations are represented by yellow and red dots on the map.

Hover mouse over dot to see the name of the station.

Then click to see weather observations and forecasts.

To change the map : click on the green buttons with a black cross to zoom in, on the green button with a dash to zoom out, or on the green arrows for adjacent maps.


METAR-TAF: